{"data":{"norad_id":64524,"intl_designator":"2025-134AA","name":"KUIPER-00064","alt_names":[],"object_type":"PAYLOAD","status":"ACTIVE","operator":null,"country":"US","launch_date":"2025-06-23","launch_site_code":"AFETR","launch_vehicle":null,"mission":null,"orbit_class":"UNKNOWN","rcs_meters":null,"size_class":null,"mass_kg":null,"dimensions":null,"purposes":[],"wikipedia_slug":null,"has_3d_model":false,"image_url":null,"decayed_at":null,"tle_current":{"epoch":"2026-05-25T00:05:30.804864Z","epoch_age_seconds":71411,"freshness":"FRESH","line1":"1 64524U 25134AA  26145.00382876 -.00001837  00000+0 -21190-3 0  9994","line2":"2 64524  51.9024 258.0801 0000437  98.8840 261.2172 14.79947270 51343","mean_motion":14.7994727,"eccentricity":4.37e-5,"inclination_deg":51.9024,"raan_deg":258.0801,"arg_perigee_deg":98.884,"mean_anomaly_deg":261.2172,"bstar":-0.0002119,"rev_number":5134,"period_min":97.300763965732,"perigee_km":629.18434935771,"apogee_km":629.79681600843,"semimajor_km":7007.6275826831,"source":"CELESTRAK","updated_at":"2026-05-25T13:38:04.578369Z"}}}